Weather History for Cozumel, Mexico

Change the Weather History Date:

Monday, December 3, 2012

  Actual Average Record
Temperature  
Mean Temperature 70 °F -  
Max Temperature 78 °F 82 °F 87 °F (1997)
Min Temperature 62 °F 72 °F 57 °F (2010)
Cooling Degree Days 5    
Growing Degree Days 20 (Base 50)    
Moisture  
Dew Point 60 °F    
Average Humidity 68    
Maximum Humidity 83    
Minimum Humidity 54    
Precipitation  
Precipitation 0.00 in - - ()
Sea Level Pressure  
Sea Level Pressure 30.07 in    
Wind  
Wind Speed 4 mph ()    
Max Wind Speed 12 mph    
Max Gust Speed -    
Visibility 7.3 miles    
Events      
Averages and records for this station are not official NWS values.
T = Trace of Precipitation, MM = Missing Value Source: Averaged Metar Reports

Daily Weather History Graph

Daily Weather History Graph

Search for Another Location

Airport:

Trip Planner

Search our weather history database for the weather conditions in past years. The results will help you decide how hot, cold, wet, or windy it might be!

Date:

Astronomy

Dec. 03, 2012 Rise Set
Actual Time 6:08 AM CST 5:06 PM CST
Civil Twilight 5:45 AM CST 5:30 PM CST
Nautical Twilight 5:17 AM CST 5:57 PM CST
Astronomical Twilight 4:50 AM CST 6:24 PM CST
Moon 9:32 PM CST (12/3) 9:49 AM CST (12/3)
Length of Visible Light 11h 45m
Length of Day
10h 57m
Waning Gibbous, 78% of the Moon is Illuminated
Dec 3
Waning Gibbous
Dec 6
Last Quarter
Dec 13
New
Dec 19
First Quarter
Dec 28
Full

Hourly Weather History & Observations

Time (CST) Temp. Dew Point Humidity Pressure Visibility Wind Dir Wind Speed Gust Speed Precip Events Conditions
12:47 AM 66.2 °F 60.8 °F 83% 30.07 in 7.0 mi East 3.5 mph - N/A   Clear
1:44 AM 66.2 °F 59.0 °F 78% 30.05 in 7.0 mi Calm Calm - N/A   Partly Cloudy
2:42 AM 66.2 °F 57.2 °F 73% 30.07 in 7.0 mi Calm Calm - N/A   Partly Cloudy
3:53 AM 64.4 °F 57.2 °F 77% 30.04 in 7.0 mi Calm Calm - N/A   Partly Cloudy
4:48 AM 64.4 °F 57.2 °F 77% 30.05 in 7.0 mi East 4.6 mph - N/A   Partly Cloudy
5:41 AM 66.2 °F 59.0 °F 78% 30.03 in 7.0 mi East 4.6 mph - N/A   Partly Cloudy
6:44 AM 62.6 °F 57.2 °F 82% 30.09 in 7.0 mi Calm Calm - N/A   Partly Cloudy
7:48 AM 71.6 °F 60.8 °F 69% 30.10 in 7.0 mi East 4.6 mph - N/A   Partly Cloudy
8:48 AM 77.0 °F 60.8 °F 57% 30.14 in 7.0 mi East 9.2 mph - N/A   Partly Cloudy
9:53 AM 78.8 °F 60.8 °F 54% 30.12 in 8.0 mi East 11.5 mph - N/A   Scattered Clouds
10:43 AM 77.0 °F 59.0 °F 54% 30.11 in 8.0 mi ENE 9.2 mph - N/A   Scattered Clouds
11:46 AM 77.0 °F 59.0 °F 54% 30.05 in 8.0 mi East 10.4 mph - N/A   Scattered Clouds
12:52 PM 77.0 °F 60.8 °F 57% 30.06 in 8.0 mi NE 9.2 mph - N/A   Scattered Clouds
2:44 PM 77.0 °F 59.0 °F 54% 30.06 in 8.0 mi ENE 10.4 mph - N/A   Scattered Clouds
3:42 PM 77.0 °F 62.6 °F 61% 30.03 in 8.0 mi ENE 9.2 mph - N/A   Scattered Clouds
4:42 PM 73.4 °F 60.8 °F 65% 30.04 in 8.0 mi ENE 6.9 mph - N/A   Scattered Clouds
5:43 PM 71.6 °F 62.6 °F 73% 30.01 in 7.0 mi ENE 4.6 mph - N/A   Scattered Clouds
6:42 PM 71.6 °F 60.8 °F 69% 30.06 in 7.0 mi ENE 4.6 mph - N/A   Scattered Clouds
7:42 PM 69.8 °F 60.8 °F 73% 30.07 in 7.0 mi East 5.8 mph - N/A   Scattered Clouds
8:45 PM 71.6 °F 62.6 °F 73% 30.11 in 7.0 mi East 5.8 mph - N/A   Scattered Clouds
9:46 PM 71.6 °F 60.8 °F 69% 30.08 in 7.0 mi East 5.8 mph - N/A   Mostly Cloudy
10:46 PM 69.8 °F 60.8 °F 73% 30.08 in 7.0 mi East 5.8 mph - N/A   Partly Cloudy
11:48 PM 69.8 °F 59.0 °F 68% 30.03 in 7.0 mi East 4.6 mph - N/A   Partly Cloudy